Location: Abraham Lincoln Continuation High School
(33.9711°N, 117.3662°W)
Time: 09:28:50
(UTC+00:00)

Cosmos 1680 Rocket - Pass Details

Date: 22 January 2021
Orbit: 760 x 780 km, 74.1° (Epoch: 25 February)

Event Time Altitude Azimuth Distance (km) Brightness Sun altitude
Rises 02:05:52 0° 357° (N) 3,238 6.6 -11.8°
Reaches altitude 10° 02:08:41 10° 11° (N) 2,305 5.7 -12.4°
Maximum altitude 02:12:54 24° 65° (ENE) 1,525 4.5 -13.2°
Enters shadow 02:16:45 12° 116° (ESE) 2,182 5.4 -14.0°
